World > North America > United States > Mississippi > Coldwater  

Coldwater, MS Hourly Weather Updates

Feedback E-mail the Weather

Quick Clicks

Coldwater, MS Weather Maps

°F °C°F °C
Coldwater Weather Map
UTC Time: 6/14/2024, 12:14
Your Time:

Coldwater, MS Regional Weather

Expires:202406141200;;998407
ASUS44 KJAN 141110
RWRMS 

MISSISSIPPI HOURLY WEATHER ROUNDUP
NATIONAL WEATHER SERVICE JACKSON MS
600 AM CDT FRI JUN 14 2024

NOTE: "FAIR: INDICATES FEW OR NO CLOUDS BELOW 12,000 FEET WITH NO
SIGNIFICANT WEATHER AND/OR OBSTRUCTIONS TO VISIBILITY.


MSZ001>002-007>008-010>013-018>021-025>028-034>036-141200-
NORTHWEST MISSISSIPPI
  
CITY           SKY/WX    TMP DP  RH WIND       PRES   REMARKS
BATESVILLE     CLEAR     61  61 100 CALM      30.00R                  
CLARKSDALE       N/A     64 N/A N/A CALM      30.01R                  
GREENWOOD      PTCLDY    66  62  87 CALM      29.98S                  
GREENVILLE     PTCLDY    66  63  90 CALM      29.98R                  
OLIVE BRANCH   CLEAR     63  61  94 S3        29.99F                  
OXFORD         CLEAR     61  61 100 CALM      30.03R                  
TUNICA         CLEAR     64  64 100 CALM      30.00R                  
WINONA         PTCLDY    62  62  98 CALM      29.99S                  
$$


SKY/WX - Weather  TMP - Temperature  DP - Dew Point  RH - Humidity
WIND - Wind Direction/Speed PRES - Barometric Pressure VSB - Visibility
WCI - Wind Chill Index E13G22 Wind - East Wind 13 mph/Gusts of 22 mph

Trending Headlines

Trending Entertainment Headlines

Coldwater Radar Loop

Use the map search tool if you want to place a location marker on the radar map...

Coldwater Quick Facts

National Two Day Weather Forecast


E-mail the Coldwater Weather Forecast

Voice your opinion or tell us about page issues...